Погода в Новы-Двур-Гданьски

Польша     54°12′42″N   19°07′26″E
темп.,
°C
ветер,
м/с
пор.,
м/с
влажн.,
%
обл.,
%
осадки,
мм/ч
давл.,
гПа
погр.,
м
27 февраля, сб
сб2701:00+4зсз612870 0.0 1024355
04:00+3сз613880 0.0 1024340
07:00+3сз512900 0.0 1027321
10:00+5ссз610850 0.0 1029679
13:00+5ссз710770 0.0 1031806
16:00+4ссз59790 0.0 1032525
19:00+2зсз48870 0.0 1033191
22:00+1зсз36865 0.0 1033132
28 февраля, вс
вс2801:00+2з378153 0.0 1032163
04:00+2з499189 0.0 1031230
07:00+2зюз489447 0.0 1031183
10:00+4зсз598969 0.0 1030641
13:00+6ссз588383 0.0 1031624
16:00+6зсз378357 0.0 1030379
19:00+3сз4109128 0.0 1032246
22:00+2сз47900 0.0 1032151
1 марта, пн
пн101:00+2сз34890 0.0 103360
04:00+2зсз23860 0.0 103226
07:00+2зюз22840 0.0 103322
10:00+7юз24740 0.0 1033218
13:00+10юз46640 0.0 1033484
16:00+9зюз47700 0.0 1031280
19:00+5зюз34860 0.0 103186
22:00+3з35830 0.0 103199
2 марта, вт
вт201:00+2з35903 0.0 103192
04:00+2з34920 0.0 103077
07:00+1з23925 0.0 103148
10:00+6зсз25811 0.0 1031380
13:00+9зсз34700 0.0 1031662
16:00+9зсз25780 0.0 1030261
19:00+5сз239010 0.0 103056
22:00+4сз248988 0.0 1031238
3 марта, ср
ср301:00+3сз129189 0.0 103133
04:00+1юз129522 0.0 103024
07:00+1юз129411 0.0 103022
10:00+6ююз22800 0.0 1030329
13:00+9ююз23680 0.0 1029533
16:00+9ююз23700 0.0 102692
19:00+5ююз33796 0.0 102430
22:00+4ююз348718 0.0 102374